This demonstration page uses our WeatherBlox Daily Observations layout. Learn more.

Left ArrowRight Arrow

39.01783, -85.05884

Hourly Observations for September 13, 2020

Temp ( °F °C ) Dew Point ( °F °C ) Humidity (%) Winds ( mph kmh ) Pressure ( in mb ) Visibility ( mi km ) Precip ( " mm )
12:32 am 00:32 Cloudy with Rain 74 23.3 72 22.2 94 94 SSW 8 13 29.98 1015 5 8 0.06 1.52
12:40 am 00:40 Cloudy with Heavy Rain 74 23.3 72 22.2 94 94 SSW 7 11 29.98 1015 3 4 0.10 2.54
12:47 am 00:47 Cloudy with Heavy Rain 73 23 70 21 89 89 SSW 9 15 29.97 1015 2 3 0.14 3.56
12:52 am 00:52 Cloudy with Rain 73 22.8 68 20 84 84 S 7 11 29.97 1015 3 4 0.17 4.32
1:00 am 01:00 Mostly Cloudy with Light Rain 72 22.2 67 19.4 84 84 SSW 3 6 29.97 1015 10 16 0.00 0.00
1:27 am 01:27 Cloudy 72 22.2 68 20 87 87 SSW 6 9 29.97 1015 10 16 0.00 0.00
1:52 am 01:52 Cloudy with Light Rain 73 22.8 71 21.7 94 94 S 9 15 29.96 1015 10 16 0.00 0.00
2:52 am 02:52 Cloudy 73 22.8 70 21.1 90 90 SSW 10 17 29.94 1014 10 16 0.00 0.00
3:41 am 03:41 Mostly Cloudy 72 22.2 69 20.6 91 91 SSW 8 13 29.94 1014 10 16 0.00 0.00
3:52 am 03:52 Cloudy 72 22.2 69 20.6 91 91 S 9 15 29.93 1014 10 16 0.00 0.00
4:28 am 04:28 Cloudy 72 22.2 69 20.6 91 91 SW 5 7 29.95 1014 10 16 0.00 0.00
4:52 am 04:52 Cloudy 72 22.2 69 20.6 91 91 SSW 7 11 29.93 1014 10 16 0.00 0.00
5:52 am 05:52 Cloudy 71 21.7 69 20.6 94 94 SSW 5 7 29.94 1014 10 16 0.00 0.00
6:52 am 06:52 Cloudy 72 22.2 69 20.6 91 91 SSW 3 6 29.95 1014 7 11 0.00 0.00
7:52 am 07:52 Cloudy with Mist and Fog 72 22.2 69 20.6 91 91 SSW 5 7 29.97 1015 5 8 0.00 0.00
8:34 am 08:34 Cloudy with Mist and Fog 72 22.2 69 20.6 91 91 Calm 29.99 1016 3 5 0.00 0.00
8:52 am 08:52 Cloudy with Mist and Fog 72 22.2 70 21.1 94 94 W 5 7 29.98 1015 3 5 0.00 0.00
9:52 am 09:52 Cloudy with Mist and Fog 74 23.3 70 21.1 88 88 W 7 11 29.99 1016 6 10 0.00 0.00
10:52 am 10:52 Cloudy 72 22.2 66 18.9 82 82 N 13 20 30.02 1017 10 16 0.00 0.00
11:52 am 11:52 Mostly Cloudy 77 25 68 20 74 74 NNW 9 15 30.03 1017 10 16 0.00 0.00
12:52 pm 12:52 Partly Cloudy 78 25.6 67 19.4 69 69 VRB 3 6 30.03 1017 10 16 0.00 0.00
1:52 pm 13:52 Partly Cloudy 78 25.6 65 18.3 64 64 Calm 30.03 1017 10 16 0.00 0.00
2:52 pm 14:52 Cloudy 80 26.7 64 17.8 58 58 WSW 8 13 30.02 1017 10 16 0.00 0.00
3:52 pm 15:52 Cloudy 79 26.1 62 16.7 56 56 WSW 7 11 30.02 1017 10 16 0.00 0.00
4:52 pm 16:52 Cloudy 79 26.1 63 17.2 58 58 SW 6 9 30.03 1017 10 16 0.00 0.00
5:52 pm 17:52 Cloudy 78 25.6 64 17.8 62 62 SW 5 7 30.04 1017 10 16 0.00 0.00
6:52 pm 18:52 Cloudy 77 25 63 17.2 62 62 WSW 5 7 30.05 1018 10 16 0.00 0.00
7:52 pm 19:52 Mostly Cloudy 73 22.8 64 17.8 74 74 W 5 7 30.05 1018 10 16 0.00 0.00
8:52 pm 20:52 Partly Cloudy 74 23.3 63 17.2 69 69 NNW 8 13 30.08 1019 10 16 0.00 0.00
9:52 pm 21:52 Mostly Cloudy 72 22.2 62 16.7 71 71 N 7 11 30.10 1019 10 16 0.00 0.00
10:52 pm 22:52 Mostly Cloudy 70 21.1 62 16.7 76 76 N 7 11 30.12 1020 10 16 0.00 0.00
11:52 pm 23:52 Mostly Cloudy 68 20 60 15.6 76 76 NNE 6 9 30.13 1020 10 16 0.00 0.00

Powered by AerisWeather